Regional Weather Roundup
Issued by NWS Sterling, VA

Home | Current Version | Previous Version | Graphics & Text | Print | Product List | Glossary On
Versions: 1 2 3 4 5 6 7 8 9 10 11 12 13 14 15 16 17 18 19 20 21 22 23 24 25 26 27 28
000
ASUS41 KLWX 241810
RWRLWX

REGIONAL WEATHER ROUNDUP
NATIONAL WEATHER SERVICE BALTIMORE MD/WASHINGTON DC
100 PM EST FRI FEB 24 2017

Note: "FAIR" indicates few or no clouds below 12,000 feet
with no significant weather and/or obstructions to visibility.
 TC=TEMPERATURE CELSIUS

 * =Non NWS site. Station does not report precipitation (e.g. rain,
    snow, etc.), thunder, or fog.

DCZ001-MDZ009-015-VAZ040>042-051-053>054-241900-
WASHINGTON METRO

CITY           SKY/WX    TMP DP  RH WIND       PRES   REMARKS
WASHINGTON NAT PTSUNNY   76  54  46 S16       29.86F
DULLES         PTSUNNY   75  52  44 S13G20    29.84F
ANDREWS AFB    SUNNY     74  53  48 S14G24    29.86F
FT BELVOIR     SUNNY     74  52  46 S9G18     29.86F
QUANTICO       MOSUNNY   62  52  69 S16       29.87F
COLLEGE PARK*  MOSUNNY   73  50  43 S9        29.85F
LEESBURG*      MOSUNNY   75  55  50 MISG      29.85F
MANASSAS*        N/A     76  53  44 SW10G18   29.85F
GAITHERSBURG*  CLOUDY    72  52  49 S9        29.89F

$$

MDZ006>007-011-014-241900-
BALTIMORE METRO

CITY           SKY/WX    TMP DP  RH WIND       PRES   REMARKS
BWI AIRPORT    PTSUNNY   72  55  55 SE12G17   29.85F
MD SCIENCE CTR   N/A     70  54  56 MISG      29.87F
MARTIN STATE   MOSUNNY   66  59  77 SE16      29.90F
ANNAPOLIS      SUNNY     57  52  83 SE15      29.88F
FORT MEADE*    PTSUNNY   73  52  46 S12G21    29.88F

$$

MDZ012-015-019>023-241900-
MARYLAND EASTERN SHORE

CITY           SKY/WX    TMP DP  RH WIND       PRES   REMARKS
OCEAN CITY     SUNNY     63  54  72 S5        29.94F
SALISBURY      CLOUDY    72  57  59 S14       29.91F
BAY BRIDGE AP* SUNNY     72  55  56 S14G23    29.88F
CAMBRIDGE*     MOSUNNY   72  57  60 S14       29.90F
EASTON*        PTSUNNY   72  55  56 S12       29.93F

$$

MDZ017>025-241900-
SOUTHERN MARYLAND

CITY           SKY/WX    TMP DP  RH WIND       PRES   REMARKS
PATUXENT RIVER MOSUNNY   63  57  81 SE12      29.90F
ST INIGOES     MOSUNNY   72  58  61 SE7       29.89F
LEONARDTOWN*   MOSUNNY   72  54  53 S10       29.91F

$$

MDZ003>005-241900-
NORTH CENTRAL MARYLAND

CITY           SKY/WX    TMP DP  RH WIND       PRES   REMARKS
FREDERICK*     SUNNY     75  55  50 SW12G18   29.87F
HAGERSTOWN APT SUNNY     75  51  43 S13G22    29.82F
WESTMINSTER*   SUNNY     73  54  49 SW14      29.85F

$$

MDZ501>502-241900-
WESTERN MARYLAND

CITY           SKY/WX    TMP DP  RH WIND       PRES   REMARKS
OAKLAND*       MOSUNNY   66  46  48 S9        29.84F
CUMBERLAND*    SUNNY     77  48  36 S7        29.82F

$$

VAZ025>031-241900-
SHENANDOAH VALLEY

CITY           SKY/WX    TMP DP  RH WIND       PRES   REMARKS
WINCHESTER*    SUNNY     73  50  43 S10       29.82F
FRONT ROYAL*   SUNNY     73  52  46 S7        29.82F
LURAY*         SUNNY     75  54  46 S10G17    29.83F
NEW MARKET*    SUNNY     74  49  40 SW14G24   29.82F
STAUNTON*      MOSUNNY   72  51  48 S8        29.87F
WAYNESBORO*    PTSUNNY   71  49  45 S6G20     29.87F

$$

WVZ021-048>050-054>055-241900-
EASTERN WEST VIRGINIA PANHANDLE

CITY           SKY/WX    TMP DP  RH WIND       PRES   REMARKS
MARTINSBURG    SUNNY     75  50  41 S13G21    29.81F
PETERSBURG*    SUNNY     78  50  38 S10       29.79F

$$

VAZ036>039-050-241900-
CENTRAL FOOTHILLS

CITY           SKY/WX    TMP DP  RH WIND       PRES   REMARKS
CHARLOTTESVILL PTSUNNY   77  53  43 S17G24    29.86F
CULPEPER*      PTSUNNY   76  54  46 S10G20    29.87F
ORANGE*        PTSUNNY   72  52  49 S10G20    29.88F
GORDONSVILLE*  PTSUNNY   73  55  52 SW12G20   29.85F
WARRENTON*     PTSUNNY   77  48  36 SW12G21   29.85F

$$

VAZ055>057-241900-
NORTH AND CENTRAL PIEDMONT

CITY           SKY/WX    TMP DP  RH WIND       PRES   REMARKS
FREDERICKSBRG* PTSUNNY   76  54  46 S16G23    29.86F
STAFFORD*      MOSUNNY   74  53  47 S12       29.90F

$$

NCZ024-NYZ072-PAZ021-071-VAZ022-071-241900-
OTHER REGIONAL OBSERVATIONS

CITY           SKY/WX    TMP DP  RH WIND       PRES   REMARKS
NEW YORK CITY  SUNNY     69  52  54 S9        29.92F
PHILADELPHIA   MOSUNNY   72  54  53 SW12      29.89F
PITTSBURGH     PTSUNNY   74  51  44 SW16G25   29.72F
ROANOKE        MOSUNNY   73  52  47 S7        29.88F
RICHMOND       MOSUNNY   72  56  57 S10       29.89F
RALEIGH        MOSUNNY   74  56  53 CALM      29.90F

$$

ANZ530>537-241900-
MARINE OBSERVATIONS

STATION/POSITION TIME  TEMP    WIND        PRES
                       AIR SEA DIR/SP/G
                 (UTC) (F)     (DEG/KT/KT) (MB)
THOMAS PT LIGHT  1800   60 44  160/ 19/ 19   N/A
BALT KEY BRIDGE  1748   63     140/ 16/ 17 1011.2F
COVE POINT       1748   50     180/ 11/ 11 1013.2F
LEWISETTA        1748   58 46   80/  7/  9 1012.2F
SOLOMONS ISLAND  1748   58 45  120/ 13/ 14   N/A
PINEY POINT      1748          140/  8/  9   N/A

$$





USA.gov is the U.S. government's official web portal to all federal, state and local government web resources and services.